Weather History for CYZP - June, 2013

Change the Weather History Date:

Thursday, June 13, 2013

  Actual Average Record
Temperature  
Mean Temperature 53 °F -  
Max Temperature 55 °F 58 °F - (-1)
Min Temperature 51 °F 49 °F - (-1)
Degree Days  
Heating Degree Days 12    
Growing Degree Days 3 (Base 50)    
Moisture  
Dew Point 50 °F    
Average Humidity 91    
Maximum Humidity 100    
Minimum Humidity 82    
Precipitation  
Precipitation 0.00 in 0.14 in - ()
Sea Level Pressure  
Sea Level Pressure 30.19 in    
Wind  
Wind Speed 5 mph ()    
Max Wind Speed 13 mph    
Max Gust Speed -    
Visibility 7.6 miles    
Events Rain    
Averages and records for this station are not official NWS values.
T = Trace of Precipitation, MM = Missing Value Source: Averaged Metar Reports

Daily Weather History Graph

Daily Weather History Graph

Search for Another Location

Airport or City:

Trip Planner

Search our weather history database for the weather conditions in past years. The results will help you decide how hot, cold, wet, or windy it might be!

Date:

Astronomy

Jun. 13, 2013 Rise Set
Actual Time 5:19 AM PDT 10:15 PM PDT
Civil Twilight 4:27 AM PDT 11:07 PM PDT
Nautical Twilight 2:57 AM PDT 12:38 AM PDT
Astronomical Twilight Sun does not rise Sun does not rise
Moon 10:39 AM PDT (6/13) 12:21 AM PDT (6/13)
Length of Visible Light 18h 39m
Length of Day
16h 56m
Waxing Crescent, 22% of the Moon is Illuminated
Jun 13
Waxing Crescent
Jun 16
First Quarter
Jun 23
Full
Jun 29
Last Quarter
Jul 8
New

Hourly Weather History & Observations

Time (PDT) Temp. Dew Point Humidity Pressure Visibility Wind Dir Wind Speed Gust Speed Precip Events Conditions
12:00 AM 51.8 °F 50.0 °F 94% 30.19 in 9.0 mi Variable 2.3 mph - N/A   Overcast
1:00 AM 51.8 °F 50.0 °F 94% 30.19 in 9.0 mi North 3.5 mph - N/A   Overcast
2:00 AM 52 °F 49 °F 88% 30.18 in - North 1.2 mph - -  
2:00 AM 51.8 °F 50.0 °F 94% 30.19 in 9.0 mi Calm Calm - N/A   Overcast
2:30 AM 51.8 °F 50.0 °F 94% 30.19 in 5.0 mi Variable 2.3 mph - N/A   Overcast
2:42 AM 51.8 °F 50.0 °F 94% 30.19 in 2.5 mi NW 3.5 mph - N/A   Overcast
2:54 AM 51.8 °F 50.0 °F 94% 30.19 in 3.0 mi NW 2.3 mph - N/A   Overcast
3:00 AM 51.8 °F 50.0 °F 94% 30.19 in 3.0 mi NW 3.5 mph - N/A   Overcast
3:17 AM 51.8 °F 50.0 °F 94% 30.19 in 3.0 mi North 2.3 mph - N/A   Overcast
3:20 AM 51.8 °F 50.0 °F 94% 30.19 in 2.2 mi NNW 2.3 mph - N/A   Overcast
3:24 AM 51.8 °F 50.0 °F 94% 30.19 in 1.8 mi NW 2.3 mph - N/A   Overcast
3:25 AM 51.8 °F 50.0 °F 94% 30.19 in 1.8 mi NNW 2.3 mph - N/A Rain Light Rain
3:50 AM 51.8 °F 51.8 °F 100% 30.19 in 2.0 mi West 5.8 mph - N/A Rain Light Rain
4:00 AM 51.8 °F 51.8 °F 100% 30.19 in 2.5 mi West 4.6 mph - N/A Rain Light Rain
4:05 AM 51.8 °F 51.8 °F 100% 30.19 in 3.0 mi West 4.6 mph - N/A Rain Light Rain
4:13 AM 51.8 °F 51.8 °F 100% 30.19 in 3.0 mi WSW 5.8 mph - N/A   Overcast
4:19 AM 51.8 °F 51.8 °F 100% 30.19 in 6.0 mi West 4.6 mph - N/A   Overcast
4:55 AM 51.8 °F 50.0 °F 94% 30.19 in 9.0 mi West 6.9 mph - N/A   Overcast
5:00 AM 51 °F 50 °F 97% 30.18 in - West 1.2 mph - -  
5:00 AM 51.8 °F 50.0 °F 94% 30.19 in 9.0 mi West 6.9 mph - N/A   Overcast
5:33 AM 51.8 °F 50.0 °F 94% 30.19 in 9.0 mi West 8.1 mph - N/A   Overcast
5:37 AM 51.8 °F 50.0 °F 94% 30.19 in 9.0 mi West 9.2 mph - N/A   Overcast
5:40 AM 51.8 °F 50.0 °F 94% 30.19 in 9.0 mi WSW 9.2 mph - N/A   Overcast
6:00 AM 51.8 °F 50.0 °F 94% 30.19 in 9.0 mi WSW 6.9 mph - N/A   Overcast
6:30 AM 51.8 °F 50.0 °F 94% 30.19 in 9.0 mi West 8.1 mph - N/A   Overcast
6:31 AM 51.8 °F 50.0 °F 94% 30.19 in 9.0 mi West 8.1 mph - N/A   Overcast
7:00 AM 51.8 °F 50.0 °F 94% 30.19 in 9.0 mi West 5.8 mph - N/A   Overcast
7:47 AM 51.8 °F 50.0 °F 94% 30.20 in 6.0 mi North 2.3 mph - N/A   Overcast
7:50 AM 51.8 °F 50.0 °F 94% 30.20 in 6.0 mi NNE 2.3 mph - N/A   Overcast
7:53 AM 51.8 °F 50.0 °F 94% 30.20 in 7.0 mi Variable 2.3 mph - N/A   Overcast
8:00 AM 52 °F 50 °F 89% 30.19 in - NNE 1.2 mph - -  
8:00 AM 51.8 °F 50.0 °F 94% 30.20 in 9.0 mi Variable 2.3 mph - N/A   Overcast
8:18 AM 51.8 °F 50.0 °F 94% 30.20 in 9.0 mi ENE 2.3 mph - N/A   Overcast
8:20 AM 51.8 °F 50.0 °F 94% 30.20 in 9.0 mi ENE 2.3 mph - N/A   Overcast
9:00 AM 51.8 °F 50.0 °F 94% 30.20 in 9.0 mi Calm Calm - N/A   Overcast
10:00 AM 51.8 °F 50.0 °F 94% 30.20 in 9.0 mi ENE 9.2 mph - N/A   Overcast
11:00 AM 53 °F 50 °F 87% 30.19 in - ENE 6.9 mph - -  
11:00 AM 53.6 °F 50.0 °F 88% 30.20 in 9.0 mi ENE 9.2 mph - N/A   Overcast
12:00 PM 53.6 °F 50.0 °F 88% 30.21 in 9.0 mi ENE 9.2 mph - N/A   Overcast
12:45 PM 53.6 °F 50.0 °F 88% 30.21 in 9.0 mi East 9.2 mph - N/A   Overcast
12:54 PM 53.6 °F 50.0 °F 88% 30.21 in 9.0 mi East 10.4 mph - N/A   Overcast
1:00 PM 53.6 °F 50.0 °F 88% 30.21 in 9.0 mi East 10.4 mph - N/A   Overcast
1:02 PM 53.6 °F 50.0 °F 88% 30.21 in 9.0 mi East 11.5 mph - N/A   Overcast
2:00 PM 53.6 °F 50.0 °F 88% 30.21 in 9.0 mi East 11.5 mph - N/A   Overcast
2:34 PM 53.6 °F 50.0 °F 88% 30.21 in 9.0 mi ESE 10.4 mph - N/A   Overcast
2:37 PM 53.6 °F 50.0 °F 88% 30.21 in 9.0 mi ESE 10.4 mph - N/A   Overcast
2:48 PM 55.4 °F 50.0 °F 82% 30.21 in 9.0 mi ESE 11.5 mph - N/A   Overcast
3:00 PM 53.6 °F 50.0 °F 88% 30.21 in 9.0 mi ESE 12.7 mph - N/A   Overcast
4:00 PM 55.4 °F 50.0 °F 82% 30.21 in 9.0 mi East 10.4 mph - N/A   Overcast
5:00 PM 54 °F 50 °F 82% 30.19 in - ESE 8.1 mph - -  
5:00 PM 55.4 °F 50.0 °F 82% 30.20 in 9.0 mi ESE 10.4 mph - N/A   Overcast
6:00 PM 53.6 °F 50.0 °F 88% 30.19 in 9.0 mi ESE 9.2 mph - N/A   Overcast
7:00 PM 53.6 °F 50.0 °F 88% 30.19 in 9.0 mi ESE 9.2 mph - N/A   Overcast
8:00 PM 53 °F 50 °F 84% 30.18 in - East 6.9 mph - -  
8:00 PM 53.6 °F 50.0 °F 88% 30.19 in 9.0 mi East 9.2 mph - N/A   Overcast
9:00 PM 53.6 °F 50.0 °F 88% 30.19 in 9.0 mi East 10.4 mph - N/A   Overcast
9:55 PM 53.6 °F 50.0 °F 88% 30.19 in 9.0 mi East 9.2 mph - N/A   Overcast
10:00 PM 53.6 °F 50.0 °F 88% 30.19 in 9.0 mi East 10.4 mph - N/A   Overcast
10:01 PM 53.6 °F 50.0 °F 88% 30.19 in 9.0 mi East 10.4 mph - N/A   Overcast
10:17 PM 53.6 °F 50.0 °F 88% 30.19 in 9.0 mi East 9.2 mph - N/A   Overcast
10:25 PM 53.6 °F 51.8 °F 94% 30.19 in 8.0 mi East 9.2 mph - N/A Rain Light Rain
10:41 PM 53.6 °F 50.0 °F 88% 30.19 in 9.0 mi ESE 8.1 mph - N/A   Overcast
10:42 PM 53.6 °F 50.0 °F 88% 30.19 in 9.0 mi ESE 8.1 mph - N/A Rain Light Rain
11:00 PM 52 °F 50 °F 90% 30.17 in - SE 4.6 mph - -  
11:00 PM 53.6 °F 50.0 °F 88% 30.18 in 9.0 mi SE 8.1 mph - N/A Rain Light Rain
11:01 PM 53.6 °F 50.0 °F 88% 30.18 in 9.0 mi SE 8.1 mph - N/A   Overcast
11:13 PM 53.6 °F 50.0 °F 88% 30.18 in 9.0 mi SE 6.9 mph - N/A Rain Light Rain
11:27 PM 53.6 °F 50.0 °F 88% 30.18 in 9.0 mi SE 6.9 mph - N/A   Overcast